New York, NY

7:25 AM EST on November 24, 2017 (GMT -0500)
La Guardia

Weather History for KLGA - March, 2001

Change the Weather History Date:

Saturday, March 31, 2001

  Actual Average Record
Temperature  
Mean Temperature 42 °F 47 °F  
Max Temperature 46 °F 55 °F 82 °F (1998)
Min Temperature 37 °F 39 °F 24 °F (1964)
Degree Days  
Heating Degree Days 24 18  
Month to date heating degree days 706  
Since 1 July heating degree days 4136  
Cooling Degree Days 0 0  
Month to date cooling degree days 0  
Year to date cooling degree days 0  
Moisture  
Dew Point 38 °F    
Average Humidity 83    
Maximum Humidity 100    
Minimum Humidity 73    
Precipitation  
Precipitation 0.07 in 0.14 in 2.10 in (2017)
Month to date precipitation 3.97  
Year to date precipitation 9.90  
Snow  
Snow 0.00 in 0.10 in 1.10 in (1970)
Month to date snowfall 4.4  
Since 1 July snowfall 26.4  
Snow Depth -    
Sea Level Pressure  
Sea Level Pressure 29.81 in    
Wind  
Wind Speed 6 mph (North)    
Max Wind Speed 9 mph    
Max Gust Speed -    
Visibility 10 miles    
Events Rain    
T = Trace of Precipitation, MM = Missing Value Source: NWS Daily Summary

Daily Weather History Graph

Daily Weather History Graph

Search for Another Location

Airport or City:

Trip Planner

Search our weather history database for the weather conditions in past years. The results will help you decide how hot, cold, wet, or windy it might be!

Date:

Astronomy

Mar. 31, 2001 Rise Set
Actual Time 5:40 AM EST 6:19 PM EST
Civil Twilight 5:12 AM EST 6:47 PM EST
Nautical Twilight 4:40 AM EST 7:19 PM EST
Astronomical Twilight 4:06 AM EST 7:53 PM EST
Moon 9:58 AM EST (3/31) 12:19 AM EST (3/31)
Length of Visible Light 13h 34m
Length of Day
12h 38m
Waxing Crescent, 42% of the Moon is Illuminated
Mar 31
Waxing Crescent
Apr 1
First Quarter
Apr 7
Full
Apr 15
Last Quarter
Apr 23
New

Hourly Weather History & Observations

Time (EST) Temp. Windchill Dew Point Humidity Pressure Visibility Wind Dir Wind Speed Gust Speed Precip Events Conditions
12:51 AM 39.9 °F 33.9 °F 37.9 °F 93% 29.76 in 10.0 mi NNW 9.2 mph - N/A   Overcast
1:51 AM 39.9 °F 35.1 °F 39.0 °F 97% 29.76 in 10.0 mi North 6.9 mph - N/A   Overcast
2:51 AM 39.0 °F 34.0 °F 39.0 °F 100% 29.78 in 10.0 mi North 6.9 mph - N/A   Overcast
3:51 AM 39.0 °F 33.4 °F 37.0 °F 93% 29.79 in 10.0 mi North 8.1 mph - N/A   Overcast
4:51 AM 39.0 °F 35.7 °F 37.0 °F 93% 29.81 in 10.0 mi Variable 4.6 mph - N/A   Overcast
5:51 AM 37.9 °F 32.7 °F 36.0 °F 93% 29.82 in 10.0 mi NNE 6.9 mph - N/A   Mostly Cloudy
6:51 AM 39.0 °F 34.0 °F 36.0 °F 89% 29.81 in 10.0 mi Variable 6.9 mph - N/A   Mostly Cloudy
7:51 AM 39.9 °F 37.8 °F 36.0 °F 86% 29.82 in 10.0 mi Variable 3.5 mph - N/A   Mostly Cloudy
8:51 AM 41.0 °F 37.1 °F 36.0 °F 82% 29.82 in 10.0 mi NW 5.8 mph - N/A   Mostly Cloudy
9:51 AM 43.0 °F 38.2 °F 36.0 °F 76% 29.84 in 10.0 mi WNW 8.1 mph - N/A   Mostly Cloudy
10:51 AM 43.0 °F 40.3 °F 36.0 °F 76% 29.82 in 10.0 mi NW 4.6 mph - 0.00 in Rain Light Rain
11:20 AM 42.8 °F - 37.4 °F 81% 29.82 in 7.0 mi Calm Calm - 0.04 in Rain Light Rain
11:39 AM 42.8 °F - 37.4 °F 81% 29.81 in 7.0 mi Calm Calm - 0.05 in Rain Light Rain
11:51 AM 42.1 °F - 39.0 °F 89% 29.82 in 5.0 mi Calm Calm - 0.06 in Rain Light Rain
12:51 PM 43.0 °F 39.5 °F 39.0 °F 86% 29.82 in 10.0 mi NW 5.8 mph - 0.01 in   Overcast
1:51 PM 45.0 °F 41.8 °F 39.9 °F 82% 29.80 in 10.0 mi NW 5.8 mph - N/A   Mostly Cloudy
2:51 PM 45.0 °F 41.8 °F 37.9 °F 76% 29.79 in 10.0 mi North 5.8 mph - N/A   Overcast
3:01 PM 44.6 °F 40.7 °F 39.2 °F 81% 29.79 in 10.0 mi NNE 6.9 mph - N/A   Overcast
3:51 PM 45.0 °F 42.6 °F 37.9 °F 76% 29.80 in 10.0 mi NE 4.6 mph - N/A   Overcast
4:10 PM 44.6 °F 42.2 °F 37.4 °F 76% 29.80 in 10.0 mi ENE 4.6 mph - N/A   Overcast
4:51 PM 46.0 °F 43.9 °F 37.9 °F 73% 29.80 in 10.0 mi ENE 4.6 mph - N/A   Overcast
5:51 PM 45.0 °F 42.6 °F 37.0 °F 74% 29.81 in 10.0 mi NNE 4.6 mph - N/A   Overcast
6:51 PM 45.0 °F 40.1 °F 37.0 °F 74% 29.81 in 10.0 mi North 9.2 mph - N/A   Overcast
7:51 PM 45.0 °F 41.8 °F 37.9 °F 76% 29.82 in 10.0 mi North 5.8 mph - N/A   Overcast
8:51 PM 45.0 °F 42.6 °F 37.9 °F 76% 29.82 in 10.0 mi NNE 4.6 mph - N/A   Overcast
9:51 PM 44.1 °F 40.8 °F 37.9 °F 79% 29.81 in 10.0 mi NE 5.8 mph - N/A   Overcast
10:51 PM 43.0 °F 38.8 °F 39.0 °F 86% 29.81 in 10.0 mi ENE 6.9 mph - N/A   Overcast
11:51 PM 42.1 °F 37.1 °F 39.0 °F 89% 29.80 in 10.0 mi ENE 8.1 mph - N/A   Overcast